Preview of NWS' New Version of Forecast
This preview is not operational and should not be used for support decisions.

Terminal Aerodrome Forecast (TAF)

Issued by National Weather Service (NWS)

                            
000
FTUS41 KGYX 242320
TAFRKD
TAF
KRKD 242320Z 2500/2524 VRB02KT P6SM SCT050
     FM251400 06010KT P6SM FEW250=